CZ-4B DEB, 40530

Orbit data source: Space-Track

CZ-4B DEB, 40530 is space debris in LEO originally from a launch on Fri, 25 Oct 2013 UTC launched from the Jiuquan Satellite Launch Center, China (JSC). Debris objects in space refer to the collection of defunct objects orbiting the Earth. Examples of debris include non-operational satellites, rocket bodies, and fragments generated from explosions, collisions, or faulty payload assembly.

Loading next visibility...
Identifier
40530, 2013-057C
Orbit
LEO
Country
Flag of CNCN / PRC
Related business
Manufacturer
SAST
Mission
Spacecraft
Bus & Motor
Unknown
Mass
Unknown
Launch date (UTC)
2013-10-25 (12 years ago)
Launch vehicle
Unknown
Launch site
Jiuquan Satellite Launch Center, China (JSC)
Object type
Payload
Rocket body
Debris
Shape & HBR
Unknown shape, 0.1 m
Radar Cross Section
Small (<0.1 m²)

Expand to show TLE details & history
Last TLE update: 2 days ago

TLE from 2 days ago
0 CZ-4B DEB
1 40530U 13057C   25341.14292328  .00006549  00000-0  11454-2 0  9995
2 40530  75.0516 240.3306 0179288 237.5315 120.8415 14.57982686564368
Epoch: 2025-12-07T03:25Z
TLE epoch observation values (Epoch: 2025-12-07T03:25:48.571Z)
Latitude
-0.00001°
Longitude
112.71767°
Altitude
769.111 km
Speed
7.434 km/s
True Right ascension
16h 01m 19s
True Declination
0° 00' 00"
Sunlit
Object was in daylight at epoch
Visualization orbit readout
Latitude
Unknown
Longitude
Unknown
Altitude
Unknown
Speed
Unknown
Apparent Right ascension
Unknown
Apparent Declination
Unknown
Sunlit
N/A
Visualization observer readout
Local Sidereal Time
18:36:09
Azimuth
Unknown
Elevation
Unknown
Doppler factor
Unknown
Orbital elements
Apogee altitude
824.061 km
Perigee altitude
570.356 km
Semi-major axis
7,075.346 km
Eccentricity
0.01793
Inclination
75.0516°
RAAN
240.3306°
Arg. of periapsis
237.5315°
True anomaly
122.58515°
Mean anomaly
120.8415°
Eccentric anomaly
121.71535°
Mean motion
3.64688 °/min
Orbital period
98.71 mins
BSTAR
0.0011454
Loading maneuver chart data...
Computing Atmospheric mass density...
Loading historical data...
Loading historical data...
Loading historical data...
Loading historical data...
Loading historical data...
Loading historical data...
Loading historical data...
Other satellites on launch #57 in the year 2013 (2013-10-25 UTC)

Documentation

Showing up to 5 results
|